Weather History for KLCI - December, 2014

Change the Weather History Date:

Tuesday, December 30, 2014

  Actual Average Record
Temperature  
Mean Temperature 19 °F -  
Max Temperature 23 °F 32 °F 61 °F (1984)
Min Temperature 14 °F 15 °F -5 °F (1987)
Degree Days  
Heating Degree Days 46    
Moisture  
Dew Point -1 °F    
Average Humidity 43    
Maximum Humidity 58    
Minimum Humidity 28    
Precipitation  
Precipitation 0.00 in - - ()
Sea Level Pressure  
Sea Level Pressure 30.25 in    
Wind  
Wind Speed 7 mph (West)    
Max Wind Speed 14 mph    
Max Gust Speed 20 mph    
Visibility 10 miles    
Events      
Averages and records for this station are not official NWS values.
T = Trace of Precipitation, MM = Missing Value Source: NWS Daily Summary

Daily Weather History Graph

Daily Weather History Graph

Search for Another Location

Airport or City:

Trip Planner

Search our weather history database for the weather conditions in past years. The results will help you decide how hot, cold, wet, or windy it might be!

Date:

Astronomy

Dec. 30, 2014 Rise Set
Actual Time 7:18 AM EST 4:17 PM EST
Civil Twilight 6:46 AM EST 4:50 PM EST
Nautical Twilight 6:09 AM EST 5:26 PM EST
Astronomical Twilight 5:35 AM EST 6:01 PM EST
Moon 12:34 PM EST (12/30) 1:31 AM EST (12/30)
Length of Visible Light 10h 04m
Length of Day
8h 59m
Waxing Gibbous, 71% of the Moon is Illuminated
Dec 30
Waxing Gibbous
Jan 4
Full
Jan 13
Last Quarter
Jan 20
New
Jan 26
First Quarter

Hourly Weather History & Observations

Time (EST) Temp. Windchill Dew Point Humidity Pressure Visibility Wind Dir Wind Speed Gust Speed Precip Events Conditions
12:15 AM 21.2 °F 13.6 °F 3.2 °F 46% 30.18 in 10.0 mi West 5.8 mph - N/A   Clear
12:35 AM 19.4 °F 7.2 °F 3.2 °F 49% 30.18 in 10.0 mi West 11.5 mph - N/A   Clear
12:55 AM 19.4 °F 11.5 °F 3.2 °F 49% 30.19 in 10.0 mi West 5.8 mph - N/A   Clear
1:15 AM 19.4 °F 8.6 °F 3.2 °F 49% 30.19 in 10.0 mi West 9.2 mph - N/A   Clear
1:35 AM 19.4 °F 10.4 °F 3.2 °F 49% 30.20 in 10.0 mi West 6.9 mph - N/A   Clear
1:55 AM 19.4 °F 11.5 °F 3.2 °F 49% 30.21 in 10.0 mi WNW 5.8 mph - N/A   Clear
2:15 AM 19.4 °F 11.5 °F 1.4 °F 46% 30.21 in 10.0 mi WNW 5.8 mph - N/A   Clear
2:35 AM 19.4 °F 11.5 °F 3.2 °F 49% 30.21 in 10.0 mi West 5.8 mph - N/A   Clear
2:55 AM 19.4 °F 10.4 °F 3.2 °F 49% 30.21 in 10.0 mi West 6.9 mph - N/A   Clear
3:15 AM 19.4 °F 11.5 °F 3.2 °F 49% 30.22 in 10.0 mi NW 5.8 mph - N/A   Clear
3:35 AM 17.6 °F 12.3 °F 3.2 °F 53% 30.22 in 10.0 mi WNW 3.5 mph - N/A   Clear
3:55 AM 17.6 °F 7.3 °F 3.2 °F 53% 30.23 in 10.0 mi WNW 8.1 mph - N/A   Clear
4:15 AM 17.6 °F 9.3 °F 3.2 °F 53% 30.23 in 10.0 mi West 5.8 mph - N/A   Clear
4:35 AM 17.6 °F 6.4 °F 3.2 °F 53% 30.24 in 10.0 mi West 9.2 mph - N/A   Clear
4:55 AM 17.6 °F 6.4 °F 3.2 °F 53% 30.24 in 10.0 mi West 9.2 mph - N/A   Clear
5:15 AM 17.6 °F 7.3 °F 3.2 °F 53% 30.24 in 10.0 mi West 8.1 mph - N/A   Clear
5:35 AM 17.6 °F 7.3 °F 3.2 °F 53% 30.25 in 10.0 mi West 8.1 mph - N/A   Clear
5:55 AM 17.6 °F 10.7 °F 3.2 °F 53% 30.25 in 10.0 mi West 4.6 mph - N/A   Clear
6:15 AM 15.8 °F 6.1 °F 3.2 °F 58% 30.25 in 10.0 mi West 6.9 mph - N/A   Clear
6:35 AM 15.8 °F 8.6 °F 3.2 °F 58% 30.25 in 10.0 mi West 4.6 mph - N/A   Clear
6:55 AM 15.8 °F 6.1 °F 3.2 °F 58% 30.26 in 10.0 mi WNW 6.9 mph - N/A   Clear
7:15 AM 15.8 °F 10.2 °F 3.2 °F 58% 30.27 in 10.0 mi West 3.5 mph - N/A   Clear
7:35 AM 15.8 °F 6.1 °F 1.4 °F 53% 30.28 in 10.0 mi West 6.9 mph - N/A   Clear
7:55 AM 15.8 °F 6.1 °F 1.4 °F 53% 30.28 in 10.0 mi WNW 6.9 mph - N/A   Clear
8:15 AM 15.8 °F 6.1 °F 1.4 °F 53% 30.29 in 10.0 mi West 6.9 mph - N/A   Clear
8:35 AM 15.8 °F 6.1 °F 1.4 °F 53% 30.29 in 10.0 mi West 6.9 mph - N/A   Clear
8:55 AM 15.8 °F 5.1 °F 1.4 °F 53% 30.29 in 10.0 mi WNW 8.1 mph - N/A   Clear
9:35 AM 17.6 °F 8.2 °F 1.4 °F 49% 30.30 in 10.0 mi West 6.9 mph - N/A   Clear
9:55 AM 17.6 °F 10.7 °F 1.4 °F 49% 30.30 in 10.0 mi NW 4.6 mph - N/A   Clear
10:15 AM 17.6 °F 10.7 °F -0.4 °F 45% 30.30 in 10.0 mi West 4.6 mph - N/A   Clear
10:35 AM 19.4 °F 11.5 °F -0.4 °F 42% 30.29 in 10.0 mi West 5.8 mph - N/A   Clear
11:15 AM 19.4 °F 8.6 °F -4.0 °F 36% 30.28 in 10.0 mi WNW 9.2 mph - N/A   Clear
11:35 AM 19.4 °F 6.0 °F -4.0 °F 36% 30.27 in 10.0 mi West 13.8 mph 18.4 mph N/A   Clear
11:55 AM 19.4 °F 7.2 °F -4.0 °F 36% 30.26 in 10.0 mi West 11.5 mph 16.1 mph N/A   Clear
12:15 PM 21.2 °F 10.9 °F -2.2 °F 36% 30.26 in 10.0 mi West 9.2 mph - N/A   Clear
12:35 PM 21.2 °F 10.1 °F -5.8 °F 30% 30.24 in 10.0 mi West 10.4 mph - N/A   Clear
12:55 PM 23.0 °F 12.4 °F -4.0 °F 31% 30.24 in 10.0 mi West 10.4 mph 19.6 mph N/A   Clear
1:15 PM 23.0 °F 10.6 °F -4.0 °F 31% 30.23 in 10.0 mi WSW 13.8 mph 19.6 mph N/A   Clear
1:35 PM 23.0 °F 11.1 °F -4.0 °F 31% 30.23 in 10.0 mi WSW 12.7 mph - N/A   Clear
1:55 PM 23.0 °F 13.1 °F -5.8 °F 28% 30.23 in 10.0 mi WNW 9.2 mph 16.1 mph N/A   Clear
2:15 PM 23.0 °F 13.9 °F -5.8 °F 28% 30.24 in 10.0 mi West 8.1 mph - N/A   Clear
2:35 PM 23.0 °F 12.4 °F -5.8 °F 28% 30.24 in 10.0 mi West 10.4 mph 16.1 mph N/A   Clear
2:55 PM 23.0 °F 17.0 °F -5.8 °F 28% 30.25 in 10.0 mi West 4.6 mph - N/A   Clear
3:15 PM 23.0 °F 17.0 °F -5.8 °F 28% 30.25 in 10.0 mi NW 4.6 mph - N/A   Clear
3:35 PM 21.2 °F 11.7 °F -5.8 °F 30% 30.25 in 10.0 mi NNW 8.1 mph - N/A   Clear
3:55 PM 21.2 °F 12.6 °F -5.8 °F 30% 30.25 in 10.0 mi NW 6.9 mph - N/A   Clear
4:35 PM 19.4 °F 10.4 °F -5.8 °F 33% 30.26 in 10.0 mi WNW 6.9 mph - N/A   Clear
4:55 PM 19.4 °F 12.8 °F -5.8 °F 33% 30.26 in 10.0 mi WNW 4.6 mph - N/A   Clear
5:35 PM 17.6 °F 10.7 °F -5.8 °F 35% 30.26 in 10.0 mi WNW 4.6 mph - N/A   Clear
5:55 PM 17.6 °F 10.7 °F -5.8 °F 35% 30.27 in 10.0 mi West 4.6 mph - N/A   Clear
6:15 PM 17.6 °F 12.3 °F -5.8 °F 35% 30.27 in 10.0 mi West 3.5 mph - N/A   Clear
6:35 PM 17.6 °F - -5.8 °F 35% 30.27 in 10.0 mi Calm Calm - N/A   Clear
6:55 PM 17.6 °F 10.7 °F -5.8 °F 35% 30.27 in 10.0 mi West 4.6 mph - N/A   Clear
7:15 PM 17.6 °F 12.3 °F -5.8 °F 35% 30.27 in 10.0 mi West 3.5 mph - N/A   Clear
7:35 PM 15.8 °F 8.6 °F -4.0 °F 41% 30.27 in 10.0 mi WSW 4.6 mph - N/A   Clear
7:55 PM 15.8 °F 7.2 °F -4.0 °F 41% 30.27 in 10.0 mi West 5.8 mph - N/A   Clear
8:15 PM 15.8 °F 8.6 °F -5.8 °F 38% 30.27 in 10.0 mi West 4.6 mph - N/A   Clear
8:35 PM 15.8 °F 7.2 °F -5.8 °F 38% 30.27 in 10.0 mi West 5.8 mph - N/A   Clear
8:55 PM 15.8 °F - -5.8 °F 38% 30.27 in 10.0 mi Calm Calm - N/A   Clear
9:15 PM 15.8 °F 10.2 °F -4.0 °F 41% 30.27 in 10.0 mi SW 3.5 mph - N/A   Clear
9:35 PM 15.8 °F 8.6 °F -2.2 °F 45% 30.27 in 10.0 mi WSW 4.6 mph - N/A   Clear
9:55 PM 15.8 °F 10.2 °F -2.2 °F 45% 30.27 in 10.0 mi WSW 3.5 mph - N/A   Clear
10:15 PM 15.8 °F - -4.0 °F 41% 30.27 in 10.0 mi Calm Calm - N/A   Clear
10:35 PM 15.8 °F 7.2 °F -2.2 °F 45% 30.27 in 10.0 mi WSW 5.8 mph - N/A   Clear
10:55 PM 15.8 °F 10.2 °F -2.2 °F 45% 30.27 in 10.0 mi West 3.5 mph - N/A   Clear
11:15 PM 15.8 °F 8.6 °F -4.0 °F 41% 30.26 in 10.0 mi WSW 4.6 mph - N/A   Clear
11:35 PM 15.8 °F 10.2 °F -2.2 °F 45% 30.25 in 10.0 mi WSW 3.5 mph - N/A   Clear
11:55 PM 14.0 °F 8.2 °F -2.2 °F 49% 30.25 in 10.0 mi SW 3.5 mph - N/A   Clear